FW8685 Weather Reports


time (UTC)temp
F
wind
direction
speed
knots
gust
knots
rain 1hr
in
rain 24hr
in
rain mn
in
humidity
%
barometer
mb
20260831222525 102 95 11.3 18.2 0.00 0.00 0.00 29 1010.5
20260831222026 102 103 9.6 17.4 0.00 0.00 0.00 29 1010.6
20260831221544 103 112 9.6 14.8 0.00 0.00 0.00 29 1010.7
20260831221024 102 92 9.6 15.6 0.00 0.00 0.00 28 1010.6
20260831220522 102 113 10.4 15.6 0.00 0.00 0.00 28 1010.6
20260831220051 103 84 8.7 15.6 0.00 0.00 0.00 28 1010.6
20260831215527 103 88 8.7 12.2 0.00 0.00 0.00 28 1010.6
20260831215025 103 97 7.8 11.3 0.00 0.00 0.00 27 1010.6
20260831214558 103 117 7.0 15.6 0.00 0.00 0.00 27 1010.7
20260831214024 103 146 8.7 15.6 0.00 0.00 0.00 26 1010.7
20260831213525 103 128 9.6 19.1 0.00 0.00 0.00 27 1010.7
20260831213043 103 105 8.7 19.1 0.00 0.00 0.00 27 1010.7
20260831212818 104 107 12.2 18.2 0.00 0.00 0.00 27 1010.7
20260831212028 104 103 7.8 15.6 0.00 0.00 0.00 27 1010.8
20260831211545 104 144 9.6 15.6 0.00 0.00 0.00 25 1010.8
20260831211024 105 120 8.7 20.0 0.00 0.00 0.00 26 1010.8
20260831210525 104 115 11.3 20.0 0.00 0.00 0.00 26 1010.8
20260831210046 104 110 11.3 20.9 0.00 0.00 0.00 27 1010.8
20260831205525 104 97 14.8 20.9 0.00 0.00 0.00 26 1010.8
20260831205024 104 127 10.4 19.1 0.00 0.00 0.00 27 1010.8
20260831204549 103 110 11.3 19.1 0.00 0.00 0.00 28 1010.8
20260831204028 103 95 13.0 19.1 0.00 0.00 0.00 27 1010.9
20260831203523 103 111 10.4 19.1 0.00 0.00 0.00 27 1011.0
20260831203042 104 105 12.2 19.1 0.00 0.00 0.00 28 1011.0
20260831202527 104 130 10.4 18.2 0.00 0.00 0.00 27 1011.2
20260831202026 104 95 10.4 18.2 0.00 0.00 0.00 27 1011.2
20260831201551 104 134 7.0 17.4 0.00 0.00 0.00 27 1011.2
20260831201026 105 99 11.3 17.4 0.00 0.00 0.00 27 1011.3
20260831200525 104 114 10.4 16.5 0.00 0.00 0.00 28 1011.3
20260831200046 104 118 9.6 21.7 0.00 0.00 0.00 27 1011.3
20260831195524 104 110 9.6 21.7 0.00 0.00 0.00 27 1011.4
20260831195025 104 108 12.2 21.7 0.00 0.00 0.00 28 1011.5
20260831194546 104 117 11.3 18.2 0.00 0.00 0.00 28 1011.5
20260831194024 104 128 9.6 20.0 0.00 0.00 0.00 28 1011.5
20260831193526 104 114 12.2 20.0 0.00 0.00 0.00 29 1011.8
20260831193118 103 128 9.6 20.0 0.00 0.00 0.00 30 1011.7
20260831192524 103 157 10.4 20.0 0.00 0.00 0.00 29 1011.8
20260831192027 103 134 5.2 15.6 0.00 0.00 0.00 30 1011.8
20260831191545 103 118 9.6 20.0 0.00 0.00 0.00 29 1011.8
20260831191024 103 101 12.2 20.0 0.00 0.00 0.00 30 1011.9
20260831190527 103 170 6.1 18.2 0.00 0.00 0.00 30 1011.8
20260831190048 103 133 10.4 19.1 0.00 0.00 0.00 30 1012.0
20260831185525 103 122 9.6 19.1 0.00 0.00 0.00 29 1011.9
20260831185023 104 130 9.6 19.1 0.00 0.00 0.00 30 1012.0
20260831184550 103 96 10.4 19.1 0.00 0.00 0.00 31 1011.9
20260831184025 103 141 11.3 19.1 0.00 0.00 0.00 31 1012.0
20260831183525 102 165 9.6 16.5 0.00 0.00 0.00 31 1011.9
20260831183053 103 140 7.8 20.0 0.00 0.00 0.00 31 1012.0
20260831182527 103 144 9.6 20.0 0.00 0.00 0.00 31 1012.1
20260831182025 102 125 8.7 17.4 0.00 0.00 0.00 31 1012.1
20260831181557 103 107 8.7 15.6 0.00 0.00 0.00 33 1012.2
20260831181024 102 123 8.7 19.1 0.00 0.00 0.00 34 1012.3
20260831180525 101 101 9.6 20.0 0.00 0.00 0.00 35 1012.4
20260831180046 101 123 9.6 20.0 0.00 0.00 0.00 34 1012.4
20260831175524 100 183 7.8 18.2 0.00 0.00 0.00 35 1012.5
20260831175024 101 160 8.7 18.2 0.00 0.00 0.00 34 1012.7
20260831174548 101 135 10.4 16.5 0.00 0.00 0.00 35 1012.7
20260831174024 99 155 7.8 18.2 0.00 0.00 0.00 36 1012.8
20260831173525 99 163 7.8 19.1 0.00 0.00 0.00 36 1012.9
20260831173047 99 113 9.6 19.1 0.00 0.00 0.00 35 1012.9
20260831172524 99 123 9.6 17.4 0.00 0.00 0.00 37 1013.0
20260831172025 98 108 7.0 17.4 0.00 0.00 0.00 38 1013.0
20260831171544 98 121 9.6 17.4 0.00 0.00 0.00 37 1013.1
20260831171025 98 123 7.8 15.6 0.00 0.00 0.00 37 1013.0
20260831170524 97 150 11.3 15.6 0.00 0.00 0.00 37 1013.2
20260831170043 97 140 7.0 14.8 0.00 0.00 0.00 38 1013.1
20260831165525 97 113 7.8 17.4 0.00 0.00 0.00 39 1013.2
20260831165025 97 170 9.6 17.4 0.00 0.00 0.00 38 1013.2
20260831164605 96 138 9.6 17.4 0.00 0.00 0.00 38 1013.2
20260831164024 96 132 9.6 18.2 0.00 0.00 0.00 39 1013.2
20260831163525 96 111 10.4 18.2 0.00 0.00 0.00 39 1013.2
20260831163048 96 123 7.8 16.5 0.00 0.00 0.00 40 1013.3
20260831162523 95 139 11.3 16.5 0.00 0.00 0.00 40 1013.3
20260831162024 96 113 7.8 15.6 0.00 0.00 0.00 40 1013.3
20260831161600 95 165 7.0 15.6 0.00 0.00 0.00 40 1013.4
20260831161023 95 138 9.6 15.6 0.00 0.00 0.00 41 1013.4
20260831160526 95 126 9.6 14.8 0.00 0.00 0.00 41 1013.5
20260831160056 94 121 8.7 14.8 0.00 0.00 0.00 41 1013.5
20260831155524 94 130 9.6 14.8 0.00 0.00 0.00 42 1013.4
20260831155026 94 119 7.0 14.8 0.00 0.00 0.00 42 1013.5
20260831154613 93 126 7.0 15.6 0.00 0.00 0.00 43 1013.4
20260831154029 93 116 9.6 15.6 0.00 0.00 0.00 42 1013.4
20260831153525 93 140 7.0 15.6 0.00 0.00 0.00 43 1013.3
20260831153046 93 123 7.8 15.6 0.00 0.00 0.00 43 1013.3
20260831152528 93 167 8.7 14.8 0.00 0.00 0.00 43 1013.4
20260831152025 92 154 5.2 13.0 0.00 0.00 0.00 44 1013.4
20260831151546 92 132 7.0 13.0 0.00 0.00 0.00 44 1013.3
20260831151025 91 128 7.0 13.0 0.00 0.00 0.00 45 1013.4
20260831150524 91 132 6.1 14.8 0.00 0.00 0.00 45 1013.4
20260831150050 90 145 6.1 14.8 0.00 0.00 0.00 46 1013.4
20260831145524 90 131 7.0 13.9 0.00 0.00 0.00 46 1013.3
20260831145024 89 164 5.2 13.9 0.00 0.00 0.00 47 1013.3
20260831144544 89 143 7.0 13.0 0.00 0.00 0.00 48 1013.4
20260831144024 88 139 7.8 13.0 0.00 0.00 0.00 48 1013.4
20260831143523 87 127 5.2 10.4 0.00 0.00 0.00 50 1013.4
20260831143044 86 125 6.1 9.6 0.00 0.00 0.00 50 1013.4
20260831142527 86 149 5.2 9.6 0.00 0.00 0.00 51 1013.4
20260831142025 85 161 5.2 9.6 0.00 0.00 0.00 52 1013.4
20260831141550 85 150 4.3 10.4 0.00 0.00 0.00 53 1013.4
20260831141024 84 115 7.0 10.4 0.00 0.00 0.00 54 1013.2
20260831140525 83 120 6.1 10.4 0.00 0.00 0.00 55 1013.3
20260831140045 83 134 6.1 11.3 0.00 0.00 0.00 56 1013.3
20260831135525 82 136 7.8 11.3 0.00 0.00 0.00 57 1013.3
20260831135028 81 125 5.2 8.7 0.00 0.00 0.00 58 1013.3
20260831134548 80 117 6.1 11.3 0.00 0.00 0.00 60 1013.4
20260831134025 80 120 6.1 13.9 0.00 0.00 0.00 61 1013.3
20260831133522 79 107 8.7 13.9 0.00 0.00 0.00 61 1013.3
20260831133047 78 112 8.7 11.3 0.00 0.00 0.00 62 1013.2
20260831132524 78 103 6.1 10.4 0.00 0.00 0.00 63 1013.1
20260831132025 77 111 7.0 10.4 0.00 0.00 0.00 64 1013.2
20260831131557 76 105 5.2 8.7 0.00 0.00 0.00 65 1013.2
20260831131025 76 119 5.2 8.7 0.00 0.00 0.00 66 1013.2
20260831130525 75 124 6.1 9.6 0.00 0.00 0.00 67 1013.0
20260831130047 75 117 6.1 9.6 0.00 0.00 0.00 69 1013.1
20260831125527 74 111 5.2 8.7 0.00 0.00 0.00 70 1013.0
20260831125025 73 111 6.1 8.7 0.00 0.00 0.00 72 1012.9
20260831124545 72 111 6.1 8.7 0.00 0.00 0.00 73 1012.8
20260831124023 72 98 5.2 7.8 0.00 0.00 0.00 74 1012.7
20260831123526 71 114 3.5 6.1 0.00 0.00 0.00 74 1012.7
20260831123046 71 107 2.6 6.1 0.00 0.00 0.00 74 1012.7
20260831122529 71 97 3.5 5.2 0.00 0.00 0.00 73 1012.8
20260831122024 71 116 2.6 5.2 0.00 0.00 0.00 73 1012.8
20260831121550 71 125 2.6 5.2 0.00 0.00 0.00 73 1012.8
20260831121029 71 107 2.6 3.5 0.00 0.00 0.00 73 1012.8
20260831120528 71 104 1.7 3.5 0.00 0.00 0.00 73 1012.9
20260831120048 71 103 1.7 3.5 0.00 0.00 0.00 73 1012.8
20260831115526 72 98 1.7 5.2 0.00 0.00 0.00 73 1012.7
20260831115024 72 93 2.6 5.2 0.00 0.00 0.00 73 1012.7
20260831114547 72 92 0.9 3.5 0.00 0.00 0.00 72 1012.6
20260831114025 72 0 0.0 0.0 0.00 0.00 0.00 71 1012.7
20260831113524 72 0 0.0 0.0 0.00 0.00 0.00 71 1012.5
20260831113049 72 0 0.0 0.9 0.00 0.00 0.00 70 1012.5
20260831112526 72 0 0.0 1.7 0.00 0.00 0.00 70 1012.3
20260831112024 72 109 0.0 2.6 0.00 0.00 0.00 70 1012.4
20260831111551 72 109 0.9 2.6 0.00 0.00 0.00 70 1012.3
20260831111024 73 109 0.9 2.6 0.00 0.00 0.00 69 1012.3
20260831110524 73 109 1.7 2.6 0.00 0.00 0.00 69 1012.2
20260831110046 73 109 0.9 3.5 0.00 0.00 0.00 68 1012.2
20260831105525 73 109 1.7 3.5 0.00 0.00 0.00 68 1012.0
20260831105026 73 110 1.7 3.5 0.00 0.00 0.00 67 1012.0
20260831104551 73 119 1.7 3.5 0.00 0.00 0.00 67 1012.0
20260831104026 74 113 2.6 5.2 0.00 0.00 0.00 67 1011.8
20260831103524 74 123 1.7 5.2 0.00 0.00 0.00 66 1011.8
20260831103050 74 105 2.6 5.2 0.00 0.00 0.00 66 1011.7
20260831102524 74 111 2.6 3.5 0.00 0.00 0.00 65 1011.7
20260831102025 75 109 1.7 3.5 0.00 0.00 0.00 65 1011.8
20260831101546 75 105 1.7 3.5 0.00 0.00 0.00 65 1011.7
20260831101023 75 107 1.7 3.5 0.00 0.00 0.00 65 1011.7
20260831100525 75 108 1.7 3.5 0.00 0.00 0.00 64 1011.7
20260831100100 75 106 2.6 3.5 0.00 0.00 0.00 64 1011.7
20260831095525 76 109 2.6 3.5 0.00 0.00 0.00 63 1011.4
20260831095026 76 115 2.6 5.2 0.00 0.00 0.00 63 1011.3
20260831094548 76 116 2.6 5.2 0.00 0.00 0.00 62 1011.3
20260831094024 76 117 2.6 5.2 0.00 0.00 0.00 62 1011.5
20260831093525 77 108 3.5 5.2 0.00 0.00 0.00 62 1011.3
20260831093056 77 112 2.6 5.2 0.00 0.00 0.00 61 1011.2
20260831092523 77 115 2.6 4.3 0.00 0.00 0.00 61 1011.2
20260831092022 77 145 2.6 6.1 0.00 0.00 0.00 61 1011.3
20260831091541 77 138 2.6 6.1 0.00 0.00 0.00 60 1011.1
20260831091029 78 122 1.7 6.1 0.00 0.00 0.00 60 1011.0
20260831090523 78 126 2.6 7.0 0.00 0.00 0.00 60 1011.0
20260831090056 78 125 2.6 7.0 0.00 0.00 0.00 60 1011.2
20260831085525 78 126 3.5 7.0 0.00 0.00 0.00 59 1011.0
20260831085024 78 110 3.5 7.0 0.00 0.00 0.00 59 1010.8
20260831084545 78 130 2.6 7.8 0.00 0.00 0.00 59 1010.8
20260831084025 78 122 4.3 7.8 0.00 0.00 0.00 59 1010.9
20260831083525 79 135 4.3 7.8 0.00 0.00 0.00 59 1010.7
20260831083102 79 149 4.3 7.8 0.00 0.00 0.00 58 1010.7
20260831082525 79 108 4.3 8.7 0.00 0.00 0.00 58 1010.5
20260831082025 79 127 4.3 8.7 0.00 0.00 0.00 58 1010.7
20260831081555 79 134 4.3 7.8 0.00 0.00 0.00 58 1010.7
20260831081027 79 121 5.2 7.8 0.00 0.00 0.00 57 1010.6
20260831080525 80 130 5.2 10.4 0.00 0.00 0.00 57 1010.6
20260831080120 80 114 5.2 10.4 0.00 0.00 0.00 57 1010.5
20260831075528 80 111 5.2 10.4 0.00 0.00 0.00 56 1010.7
20260831075026 80 120 5.2 8.7 0.00 0.00 0.00 56 1010.7
20260831074547 81 113 5.2 8.7 0.00 0.00 0.00 56 1010.8
20260831074024 81 121 5.2 7.8 0.00 0.00 0.00 55 1010.8
20260831073524 81 110 5.2 10.4 0.00 0.00 0.00 55 1010.8
20260831073045 81 103 5.2 10.4 0.00 0.00 0.00 54 1010.8
20260831072527 81 125 6.1 10.4 0.00 0.00 0.00 54 1010.9
20260831072025 82 117 6.1 10.4 0.00 0.00 0.00 54 1010.8
20260831071548 82 137 4.3 10.4 0.00 0.00 0.00 54 1011.0
20260831071025 82 140 4.3 9.6 0.00 0.00 0.00 53 1010.9
20260831070524 82 144 4.3 9.6 0.00 0.00 0.00 53 1010.8
20260831070048 82 124 5.2 11.3 0.00 0.00 0.00 53 1010.9
20260831065526 83 123 6.1 11.3 0.00 0.00 0.00 52 1010.9
20260831065025 83 141 6.1 12.2 0.00 0.00 0.00 52 1010.9
20260831064544 83 113 6.1 12.2 0.00 0.00 0.00 52 1010.8
20260831064025 83 126 7.8 13.0 0.00 0.00 0.00 52 1010.8
20260831063525 83 118 7.8 13.0 0.00 0.00 0.00 52 1010.7
20260831063106 83 134 7.0 13.9 0.00 0.00 0.00 52 1010.6
20260831062524 84 141 7.8 14.8 0.00 0.00 0.00 51 1010.4
20260831062024 84 134 8.7 14.8 0.00 0.00 0.00 51 1010.3
20260831061547 84 113 7.8 13.9 0.00 0.00 0.00 51 1010.4
20260831061027 84 119 8.7 17.4 0.00 0.00 0.00 51 1010.4
20260831060524 84 113 8.7 17.4 0.00 0.00 0.00 50 1010.3
20260831060048 84 119 9.6 16.5 0.00 0.00 0.00 50 1010.3
20260831055524 84 126 8.7 16.5 0.00 0.00 0.00 50 1010.2
20260831055025 84 111 9.6 16.5 0.00 0.00 0.00 50 1010.2
20260831054543 84 128 8.7 17.4 0.00 0.00 0.00 50 1010.0
20260831054025 84 109 7.8 17.4 0.00 0.00 0.00 50 1009.8
20260831053525 84 140 7.0 14.8 0.00 0.00 0.00 50 1009.7
20260831053122 84 122 9.6 13.9 0.00 0.00 0.00 50 1009.6
20260831052524 84 113 7.8 13.9 0.00 0.00 0.00 50 1009.6
20260831052027 84 109 8.7 14.8 0.00 0.00 0.00 50 1009.6
20260831051545 84 113 9.6 14.8 0.00 0.00 0.00 50 1009.6
20260831051023 84 100 8.7 14.8 0.00 0.00 0.00 50 1009.6
20260831050523 84 110 8.7 13.9 0.00 0.00 0.00 49 1009.5
20260831050051 84 115 8.7 13.0 0.00 0.00 0.00 49 1009.5
20260831045525 84 107 9.6 13.0 0.00 0.00 0.00 49 1009.3
20260831045028 84 111 9.6 13.0 0.00 0.00 0.00 49 1009.3
20260831044636 84 114 9.6 13.0 0.00 0.00 0.00 49 1009.3
20260831044026 84 112 9.6 13.0 0.00 0.00 0.00 49 1009.3
20260831043524 84 104 8.7 13.9 0.00 0.00 0.00 49 1009.4
20260831043045 84 105 8.7 14.8 0.00 0.00 0.00 49 1009.3
20260831042524 84 103 8.7 14.8 0.00 0.00 0.00 49 1009.4
20260831042024 84 101 8.7 15.6 0.00 0.00 0.00 48 1009.5
20260831041557 85 94 10.4 15.6 0.00 0.00 0.00 48 1009.5
20260831041024 85 105 9.6 13.0 0.00 0.00 0.00 48 1009.6
20260831040525 85 115 8.7 13.0 0.00 0.00 0.00 48 1009.6
20260831040050 85 97 7.8 12.2 0.00 0.00 0.00 48 1009.6
20260831035524 85 99 7.8 12.2 0.00 0.00 0.00 48 1009.6
20260831035024 85 109 7.8 11.3 0.00 0.00 0.00 48 1009.6
20260831034545 85 119 7.0 10.4 0.00 0.00 0.00 48 1009.6
20260831034027 86 101 7.8 10.4 0.00 0.00 0.00 47 1009.5
20260831033525 86 104 7.0 10.4 0.00 0.00 0.00 47 1009.6
20260831033054 86 102 7.0 10.4 0.00 0.00 0.00 47 1009.6
20260831032525 86 108 6.1 11.3 0.00 0.00 0.00 47 1009.6
20260831032029 86 98 7.0 11.3 0.00 0.00 0.00 47 1009.6
20260831031549 87 108 7.8 12.2 0.00 0.00 0.00 47 1009.5
20260831031024 87 109 7.8 13.9 0.00 0.00 0.00 47 1009.6
20260831030527 87 103 7.8 13.9 0.00 0.00 0.00 46 1009.5
20260831030049 87 98 8.7 12.2 0.00 0.00 0.00 46 1009.4
20260831025525 87 96 7.8 10.4 0.00 0.00 0.00 46 1009.5
20260831025025 87 101 7.0 11.3 0.00 0.00 0.00 46 1009.4
20260831024545 88 105 7.0 12.2 0.00 0.00 0.00 45 1009.4
20260831024024 88 100 7.8 12.2 0.00 0.00 0.00 45 1009.4
20260831023522 88 108 7.8 11.3 0.00 0.00 0.00 45 1009.3
20260831023041 88 100 7.0 12.2 0.00 0.00 0.00 45 1009.3
20260831022525 88 108 7.8 12.2 0.00 0.00 0.00 45 1009.3
20260831022027 88 101 7.0 11.3 0.00 0.00 0.00 45 1009.2
20260831021547 88 109 7.8 11.3 0.00 0.00 0.00 44 1009.1
20260831021025 89 109 7.8 11.3 0.00 0.00 0.00 44 1009.1
20260831020524 89 104 7.8 11.3 0.00 0.00 0.00 44 1008.8
20260831020045 89 126 6.1 10.4 0.00 0.00 0.00 44 1008.8
20260831015525 89 113 7.0 11.3 0.00 0.00 0.00 43 1008.7
20260831015021 90 103 6.1 11.3 0.00 0.00 0.00 42 1008.6
20260831014550 90 107 5.2 9.6 0.00 0.00 0.00 42 1008.5
20260831014024 91 93 5.2 9.6 0.00 0.00 0.00 41 1008.6
20260831013526 91 103 7.0 9.6 0.00 0.00 0.00 40 1008.3
20260831013046 91 102 7.0 10.4 0.00 0.00 0.00 40 1008.3
20260831012524 92 98 7.0 10.4 0.00 0.00 0.00 39 1008.4
20260831012025 92 112 6.1 10.4 0.00 0.00 0.00 38 1008.3
20260831011554 93 102 7.0 10.4 0.00 0.00 0.00 37 1008.4
20260831011024 93 113 6.1 15.6 0.00 0.00 0.00 37 1008.2
20260831010525 94 108 7.0 15.6 0.00 0.00 0.00 37 1008.2
20260831010058 94 128 7.0 15.6 0.00 0.00 0.00 36 1008.2
20260831005525 95 131 6.1 11.3 0.00 0.00 0.00 36 1008.2
20260831005028 95 98 7.8 12.2 0.00 0.00 0.00 35 1008.1
20260831004548 96 123 7.8 15.6 0.00 0.00 0.00 35 1008.1
20260831004024 96 107 8.7 15.6 0.00 0.00 0.00 35 1008.1
20260831003527 97 118 7.8 13.9 0.00 0.00 0.00 35 1008.1
20260831003045 98 112 7.0 13.9 0.00 0.00 0.00 34 1008.1
20260831002524 98 99 7.0 13.9 0.00 0.00 0.00 34 1008.1
20260831002024 98 123 8.7 17.4 0.00 0.00 0.00 34 1008.1
20260831001544 99 132 10.4 18.2 0.00 0.00 0.00 33 1008.1
20260831001025 99 127 12.2 18.2 0.00 0.00 0.00 33 1008.2
20260831000525 99 129 11.3 18.2 0.00 0.00 0.00 33 1008.1
20260831000045 100 120 12.2 22.6 0.00 0.00 0.00 32 1008.1
20260830235524 100 113 12.2 22.6 0.00 0.00 0.00 32 1008.1
20260830235024 100 106 9.6 20.0 0.00 0.00 0.00 32 1008.0
20260830234550 100 107 12.2 20.9 0.00 0.00 0.00 32 1008.1
20260830234026 101 121 12.2 23.5 0.00 0.00 0.00 32 1008.0
20260830233525 101 116 13.0 23.5 0.00 0.00 0.00 31 1007.9
20260830233044 101 98 10.4 19.1 0.00 0.00 0.00 31 1007.8
20260830232526 101 100 8.7 18.2 0.00 0.00 0.00 32 1007.9
20260830232025 102 150 11.3 22.6 0.00 0.00 0.00 31 1008.0
20260830231543 102 125 13.0 22.6 0.00 0.00 0.00 32 1007.9
20260830231024 102 114 10.4 22.6 0.00 0.00 0.00 31 1007.9
20260830230524 102 123 13.9 22.6 0.00 0.00 0.00 31 1007.9
20260830230047 103 134 10.4 18.2 0.00 0.00 0.00 31 1007.7
20260830225525 103 113 10.4 20.9 0.00 0.00 0.00 31 1007.7
20260830225024 103 134 12.2 20.9 0.00 0.00 0.00 31 1007.6
20260830224548 103 126 12.2 20.0 0.00 0.00 0.00 31 1007.6
20260830224025 103 131 12.2 25.2 0.00 0.00 0.00 31 1007.6
20260830223524 103 119 13.9 25.2 0.00 0.00 0.00 30 1007.7
20260830223045 103 132 12.2 23.5 0.00 0.00 0.00 30 1007.7